Wind_Speed
9 7 7 7 3 4 4 5 7 11 14 21 24 30 32 33 36 36 33 32 35 48 41 40 37 34 35 33 37 32 42 45 36 36 26 47 51 54 48 44 41 36 35 29
11 13 9 7 6 5 6 8 11 16 15 18 22 29 24 22 24 30 34 36 36 34 39 43 43 43 39 37 38 41 36 35 39 39 44 38 46 51 46 42 42 39 36 34
2 6 3 3 7 8 8 11 12 13 18 21 19 21 13 12 22 19 14 25 30 33 37 41 44 48 48 43 41 43 42 42 45 44 38 43 42 48 48 45 42 41 36 38
6 8 5 8 9 9 11 9 11 14 13 13 13 12 18 8 4 8 7 13 18 20 25 33 39 45 50 50 47 47 48 51 52 53 47 41 44 45 46 46 44 39 44 31
9 10 14 17 15 12 11 14 14 16 18 19 17 11 8 6 10 5 3 7 11 15 22 24 29 35 40 49 49 49 51 51 56 58 56 52 47 49 44 43 43 42 38 34
22 18 18 13 11 12 14 15 18 19 13 8 8 10 6 6 4 7 25 17 15 17 18 21 24 28 31 35 41 46 50 53 52 51 54 58 54 51 52 50 43 46 42 38
21 22 20 15 16 16 16 10 8 4 5 4 4 13 17 11 15 23 23 23 18 18 17 22 26 28 29 30 34 41 47 52 56 54 55 54 56 57 54 50 48 49 47 46
14 14 14 15 17 13 12 10 8 5 4 7 16 12 7 11 27 20 14 11 12 17 24 28 29 28 28 31 33 37 44 50 55 57 57 55 55 55 56 56 52 49 47 46
7 11 16 15 18 14 10 9 9 12 15 11 11 19 24 9 7 9 12 11 16 22 29 29 30 33 34 34 36 39 39 46 51 56 58 59 55 55 54 52 53 51 47 48
12 11 16 15 19 20 17 11 5 6 4 6 7 23 21 20 10 12 19 10 20 27 30 31 34 33 36 40 41 42 41 41 48 50 52 57 57 51 51 51 55 53 49 45
16 13 12 11 9 10 12 15 11 10 7 4 8 9 10 17 23 22 19 20 34 35 34 33 34 36 39 39 43 46 45 43 42 47 50 52 59 54 47 46 51 52 51 50
16 13 18 20 17 20 17 16 16 13 8 12 19 36 26 19 11 15 23 40 30 31 32 36 36 36 42 46 51 46 48 46 44 44 50 52 55 56 48 45 45 47 48 47
12 9 11 11 6 10 11 16 15 15 14 22 15 21 15 27 37 37 34 28 29 33 37 38 39 40 45 48 49 47 48 51 50 46 47 51 54 57 51 45 39 41 46 45
19 18 21 22 16 8 9 13 15 21 21 27 30 47 41 33 31 27 22 26 31 33 31 36 41 41 45 51 38 38 40 43 48 47 46 48 53 57 48 42 39 43 43 40
27 29 27 30 31 29 33 35 32 31 35 32 38 35 33 27 23 23 24 24 28 25 33 36 39 44 48 41 27 34 39 39 39 43 42 45 49 54 46 41 42 42 40 39
22 19 19 23 19 20 24 32 33 36 37 36 38 36 21 29 32 27 23 27 29 34 43 39 37 42 47 30 27 29 41 38 40 39 39 41 50 52 45 41 43 39 39 35
17 14 11 20 14 16 18 29 25 26 23 21 24 25 25 30 19 22 27 28 33 39 40 34 36 41 34 29 35 39 39 37 38 42 41 43 58 50 41 42 43 41 36 30
31 23 21 23 17 11 14 17 13 13 19 19 20 18 19 21 34 38 33 32 36 36 32 33 36 39 32 35 24 36 15 38 39 37 39 50 59 49 38 42 42 36 32 30
21 28 22 9 14 18 21 17 17 9 17 19 15 16 20 38 42 34 30 34 37 32 32 35 37 40 30 33 38 32 1 27 19 25 38 52 52 47 40 39 36 32 33 34
5 21 22 7 6 4 4 12 18 20 22 20 16 24 42 48 40 41 39 32 29 28 35 34 35 37 27 25 27 31 12 13 32 29 37 44 43 41 43 40 35 33 33 33
6 8 22 17 10 12 12 16 14 7 14 24 38 45 48 43 42 43 38 34 34 36 37 35 33 34 26 22 18 17 7 12 24 31 34 39 41 38 34 33 33 33 35 33
9 5 3 7 7 8 6 18 21 31 45 43 45 41 38 40 40 38 40 41 42 43 36 33 36 30 21 18 11 7 3 15 19 26 34 35 37 35 35 34 34 34 33 34
4 7 12 11 14 25 28 26 31 35 35 28 29 33 37 41 46 46 47 44 43 43 43 37 38 25 15 11 7 3 7 16 17 24 29 31 32 33 33 32 30 35 35 32
12 16 16 20 19 24 18 21 26 28 32 35 36 37 40 43 47 50 51 49 49 47 44 38 30 20 12 10 7 2 3 7 20 26 29 31 33 33 33 32 31 29 29 29
13 16 23 29 32 30 27 30 32 35 36 38 40 48 52 53 53 52 51 50 48 44 30 25 21 16 12 12 10 6 5 9 23 23 24 25 27 32 34 32 28 26 25 23
17 19 30 35 27 27 35 39 39 39 42 49 54 46 41 42 40 41 41 39 34 22 19 20 16 14 15 14 14 7 10 13 20 23 26 29 35 32 28 27 27 27 25 25
Wind_Direction
240 237 225 217 221 230 235 280 289 298 302 295 277 278 272 265 258 256 247 242 233 240 249 253 252 252 249 248 250 242 250 233 246 233 232 236 229 233 242 237 237 242 246 247
250 249 239 226 254 261 262 281 291 307 302 298 296 288 291 281 275 263 256 251 251 247 252 251 253 253 249 247 247 247 246 246 247 226 246 237 230 235 235 235 238 245 250 251
196 150 120 293 263 260 267 289 300 299 313 312 311 300 298 297 286 268 252 245 249 254 251 252 256 255 256 252 247 245 243 242 241 244 244 239 238 237 239 237 237 241 240 250
216 206 284 298 285 257 277 298 297 302 305 305 304 287 291 290 299 309 242 249 252 250 254 254 252 256 253 255 250 245 244 245 248 250 250 248 238 239 242 244 239 235 247 264
237 262 287 287 283 265 267 286 284 290 286 289 278 260 281 236 285 238 354 323 278 266 262 260 260 259 255 256 256 247 242 243 245 246 245 248 245 241 236 238 239 235 239 245
262 266 281 276 273 268 275 278 293 286 273 252 238 234 248 234 233 250 304 303 301 291 275 267 262 262 259 259 259 258 246 238 240 243 244 245 243 242 241 238 237 235 235 242
259 265 269 255 265 264 263 283 301 260 208 268 202 287 256 234 268 295 296 291 277 287 273 269 269 264 265 264 259 257 256 246 237 238 243 240 240 239 240 239 237 242 242 242
256 259 249 253 250 250 251 261 257 278 266 289 285 257 263 283 305 304 294 275 285 285 290 284 285 283 273 268 263 256 253 253 245 239 236 239 237 237 236 235 237 239 244 240
239 251 263 257 253 248 264 237 244 255 267 275 252 270 288 291 299 295 304 302 296 302 290 290 284 278 278 275 269 265 257 252 249 243 238 236 236 237 237 234 235 238 240 239
261 273 276 265 256 261 244 242 234 212 258 265 263 281 268 293 309 296 307 289 301 309 307 296 295 290 275 278 275 270 261 256 250 247 242 234 232 233 236 236 237 236 237 238
269 263 272 264 252 250 243 234 218 227 228 270 296 271 287 291 297 295 294 283 307 306 308 303 301 298 294 284 285 274 259 251 250 248 244 237 228 229 230 232 231 232 234 235
265 268 268 271 276 262 237 235 227 228 213 239 270 278 280 293 287 299 300 307 301 299 309 309 304 295 304 299 295 274 256 248 247 244 242 238 227 224 224 228 233 232 229 230
252 244 281 295 260 249 229 228 217 231 254 254 262 266 304 294 294 300 308 312 306 310 310 307 303 303 305 304 293 273 257 245 242 242 238 235 227 218 220 225 228 233 229 233
255 248 252 257 269 280 246 226 244 264 261 265 255 278 296 312 305 312 313 308 312 312 314 310 308 308 307 305 281 257 260 249 243 242 241 234 225 214 216 219 226 226 225 219
259 264 264 264 266 267 266 265 265 257 259 259 272 275 297 321 325 318 314 309 310 317 317 312 309 311 309 307 272 264 259 252 248 245 241 231 221 208 210 211 220 220 212 215
246 259 259 264 269 268 266 266 264 261 261 262 268 271 311 315 317 315 311 305 293 300 310 306 303 319 318 296 281 274 254 254 243 241 237 225 204 198 199 204 211 208 208 214
244 237 257 266 277 284 274 270 267 264 255 257 262 282 296 309 312 316 314 303 301 298 304 299 307 319 318 305 286 286 254 247 241 233 235 203 188 190 195 202 208 207 212 219
246 246 251 266 276 250 253 273 275 267 277 281 281 302 300 302 305 302 308 303 301 306 313 307 310 319 314 318 290 263 238 234 234 211 196 184 183 190 197 201 201 204 212 220
239 234 237 233 228 269 280 268 271 273 274 288 284 255 267 307 307 298 299 301 299 300 305 310 312 319 316 312 306 334 236 182 168 170 180 181 188 192 193 192 196 205 214 219
247 221 220 237 251 263 295 295 296 298 290 273 244 286 300 307 303 301 305 302 300 297 305 311 312 318 315 308 308 336 357 272 86 132 158 178 189 193 198 195 198 207 215 227
245 203 216 243 260 273 296 297 311 278 301 289 290 293 298 299 298 300 302 300 295 299 303 306 309 311 311 310 329 341 27 145 133 140 146 153 165 172 181 190 203 213 223 232
344 326 235 252 248 269 283 307 300 294 292 296 298 297 294 295 295 299 295 294 295 298 300 302 304 303 297 303 330 346 24 164 161 160 165 169 175 184 193 202 211 221 208 184
341 308 288 271 262 280 292 292 294 290 293 307 306 299 299 292 291 294 293 291 290 292 294 298 298 292 275 276 284 354 186 184 176 175 181 184 186 191 199 207 195 182 179 184
316 312 295 305 319 323 313 301 309 310 308 307 302 298 294 290 289 289 289 287 285 286 288 292 283 274 249 246 243 279 235 164 179 179 182 185 190 193 187 174 177 183 187 191
324 319 328 317 331 332 331 329 320 312 306 303 300 301 297 293 288 287 284 283 282 282 283 269 265 245 226 220 217 213 207 162 185 177 174 184 185 178 174 171 178 191 194 192
339 334 319 308 338 332 327 328 324 316 310 305 306 303 297 294 289 287 288 285 281 274 261 258 230 220 211 202 205 213 210 199 185 179 174 168 189 156 154 169 189 176 176 174
Height
3086 3087 3086 3086 3086 3086 3086 3085 3084 3083 3082 3078 3077 3076 3076 3077 3076 3077 3078 3080 3083 3084 3087 3086 3088 3092 3095 3099 3103 3106 3105 3107 3112 3114 3118 3124 3127 3130 3133 3139 3143 3146 3149 3150
3086 3084 3084 3084 3084 3083 3083 3082 3082 3080 3078 3076 3072 3067 3068 3068 3068 3068 3070 3074 3076 3078 3078 3078 3078 3082 3085 3089 3092 3096 3098 3098 3104 3108 3114 3114 3116 3121 3124 3128 3134 3137 3141 3142
3083 3083 3083 3083 3082 3082 3081 3080 3079 3078 3074 3071 3066 3059 3060 3062 3060 3061 3062 3063 3064 3065 3067 3068 3067 3070 3071 3077 3082 3087 3090 3095 3101 3105 3104 3104 3107 3113 3118 3122 3126 3129 3133 3134
3082 3082 3082 3081 3081 3080 3079 3077 3076 3075 3074 3071 3069 3057 3054 3053 3054 3053 3054 3054 3054 3056 3057 3057 3059 3059 3059 3064 3070 3074 3078 3083 3088 3091 3092 3095 3099 3104 3112 3115 3118 3122 3126 3128
3081 3079 3079 3077 3077 3077 3077 3074 3073 3071 3070 3068 3064 3061 3047 3047 3048 3048 3051 3051 3052 3051 3050 3049 3048 3050 3052 3053 3055 3061 3065 3069 3075 3078 3081 3086 3089 3096 3104 3106 3112 3112 3117 3121
3074 3075 3074 3073 3072 3072 3072 3071 3069 3065 3064 3060 3056 3056 3043 3044 3043 3045 3045 3046 3046 3044 3043 3043 3044 3044 3044 3045 3044 3046 3052 3058 3063 3068 3071 3076 3081 3088 3094 3099 3105 3107 3108 3112
3069 3069 3069 3069 3069 3068 3068 3068 3064 3059 3055 3049 3051 3049 3039 3040 3041 3040 3037 3038 3040 3039 3037 3036 3035 3035 3033 3033 3035 3037 3039 3043 3051 3055 3060 3065 3070 3077 3083 3090 3095 3100 3102 3104
3065 3064 3064 3064 3064 3065 3063 3065 3065 3058 3050 3046 3048 3037 3031 3032 3035 3032 3031 3031 3032 3032 3030 3028 3025 3023 3024 3024 3025 3026 3027 3028 3033 3041 3047 3053 3059 3062 3070 3078 3085 3090 3094 3098
3059 3058 3059 3059 3058 3060 3059 3058 3058 3056 3053 3050 3038 3029 3027 3026 3028 3028 3028 3027 3027 3025 3023 3020 3018 3017 3016 3015 3014 3013 3013 3014 3018 3025 3032 3039 3047 3050 3058 3067 3074 3079 3084 3089
3056 3055 3053 3054 3053 3053 3052 3053 3054 3054 3050 3041 3029 3025 3022 3022 3023 3024 3022 3020 3018 3016 3014 3012 3009 3008 3005 3002 2999 3000 3001 3002 3005 3010 3017 3025 3034 3041 3047 3055 3060 3068 3074 3080
3052 3052 3050 3048 3047 3048 3048 3046 3047 3048 3047 3040 3030 3016 3017 3017 3017 3016 3015 3013 3011 3007 3005 3003 3000 2996 2993 2992 2989 2987 2989 2991 2992 2996 3002 3009 3020 3029 3036 3042 3051 3056 3063 3069
3048 3046 3043 3041 3041 3039 3039 3041 3041 3041 3040 3038 3036 3006 3012 3011 3011 3009 3009 3006 3001 2999 2997 2993 2990 2986 2983 2978 2974 2972 2972 2973 2976 2980 2986 2994 3004 3015 3022 3031 3039 3046 3053 3058
3042 3040 3039 3035 3035 3033 3032 3032 3034 3036 3035 3031 3031 3007 3007 3007 3006 3003 3000 2998 2994 2990 2987 2983 2980 2977 2972 2966 2959 2955 2955 2957 2961 2965 2972 2979 2987 3000 3011 3021 3030 3036 3041 3048
3036 3034 3034 3032 3031 3032 3031 3030 3030 3031 3027 3020 3019 3001 3002 3001 2999 2995 2993 2991 2986 2982 2978 2974 2969 2964 2958 2952 2946 2943 2944 2945 2948 2952 2956 2964 2974 2988 3002 3013 3019 3026 3033 3038
3031 3025 3027 3025 3024 3026 3023 3021 3020 3020 3015 3015 3007 3006 2996 2995 2992 2989 2985 2982 2979 2976 2971 2966 2960 2953 2945 2936 2933 2930 2930 2932 2935 2937 2942 2950 2963 2979 2992 3001 3010 3018 3025 3031
3022 3019 3019 3016 3017 3016 3014 3009 3008 3006 3005 3004 2999 2995 2994 2990 2986 2982 2978 2975 2972 2968 2964 2958 2952 2944 2934 2924 2922 2918 2917 2919 2922 2926 2929 2938 2951 2968 2982 2993 3002 3010 3017 3024
3016 3015 3015 3010 3012 3011 3007 2994 2995 2994 2995 2994 2992 2989 2988 2983 2979 2976 2973 2969 2965 2961 2953 2949 2943 2935 2924 2918 2911 2907 2903 2906 2910 2913 2919 2928 2942 2960 2974 2985 2994 3002 3010 3017
3006 3010 3011 3006 3009 3002 2993 2990 2991 2990 2989 2987 2985 2983 2980 2976 2972 2967 2966 2960 2956 2952 2945 2940 2935 2928 2920 2909 2901 2897 2889 2890 2897 2901 2908 2918 2936 2953 2966 2977 2987 2996 3004 3011
2996 3002 3003 3002 2998 2991 2989 2989 2988 2986 2984 2981 2978 2975 2971 2968 2962 2959 2957 2953 2947 2944 2938 2932 2927 2921 2911 2902 2892 2881 2885 2885 2885 2892 2901 2915 2932 2948 2960 2971 2982 2990 2997 3003
2991 2991 2998 2996 2994 2987 2985 2984 2982 2980 2976 2972 2970 2967 2963 2958 2950 2947 2948 2943 2939 2937 2931 2926 2920 2915 2908 2901 2894 2882 2879 2863 2847 2889 2901 2917 2932 2945 2956 2966 2975 2983 2990 2997
2992 2991 2992 2994 2991 2985 2981 2979 2977 2978 2977 2969 2965 2960 2955 2949 2946 2937 2936 2932 2928 2929 2926 2920 2916 2909 2904 2900 2894 2886 2880 2881 2883 2893 2906 2918 2931 2942 2953 2961 2970 2977 2983 2989
2993 2992 2991 2990 2987 2983 2979 2977 2977 2972 2962 2959 2954 2950 2945 2940 2933 2930 2927 2922 2918 2912 2917 2916 2909 2906 2902 2900 2897 2891 2889 2892 2895 2903 2912 2921 2930 2940 2949 2957 2965 2971 2975 2983
2993 2993 2991 2989 2981 2978 2975 2969 2965 2961 2954 2950 2946 2942 2936 2930 2922 2920 2917 2915 2911 2906 2903 2905 2903 2902 2901 2900 2899 2898 2897 2901 2901 2908 2916 2923 2930 2938 2946 2954 2960 2966 2973 2981
2989 2987 2984 2981 2976 2970 2966 2962 2957 2953 2947 2942 2938 2932 2925 2918 2913 2906 2902 2901 2899 2898 2897 2896 2892 2893 2897 2897 2898 2898 2899 2900 2903 2909 2915 2922 2929 2936 2943 2952 2960 2967 2974 2980
2986 2982 2978 2973 2967 2960 2958 2954 2948 2942 2937 2931 2925 2919 2910 2903 2895 2893 2888 2885 2884 2885 2887 2886 2887 2889 2892 2894 2896 2897 2898 2898 2904 2908 2914 2922 2928 2935 2943 2949 2959 2968 2974 2981
2982 2979 2974 2966 2962 2958 2951 2945 2939 2932 2925 2918 2908 2898 2893 2886 2879 2877 2874 2871 2870 2874 2877 2878 2882 2886 2888 2891 2894 2896 2897 2897 2902 2908 2914 2919 2929 2934 2941 2951 2959 2966 2974 2979